Time,TemperatureF,DewpointF,PressureIn,WindDirection,WindDirectionDegrees,WindSpeedMPH,WindSpeedGustMPH,Humidity,HourlyPrecipIn,Conditions,Clouds,dailyrainin,SolarRadiationWatts/m^2,SoftwareType,DateUTC
2013-04-24 00:03:00,57.1,55.0,29.83,South,188,5.0,11.0,93,0.04,,,0.26,0,weatherlink.com 1.10,2013-04-24 04:03:00,
2013-04-24 00:18:00,56.7,55.0,29.82,West,280,0.0,7.0,93,0.04,,,0.27,0,weatherlink.com 1.10,2013-04-24 04:18:00,
2013-04-24 00:33:00,56.4,55.0,29.82,SW,235,0.0,7.0,93,0.04,,,0.28,0,weatherlink.com 1.10,2013-04-24 04:33:00,
2013-04-24 00:48:00,56.1,54.0,29.82,SW,235,4.0,5.0,94,0.03,,,0.28,0,weatherlink.com 1.10,2013-04-24 04:48:00,
2013-04-24 01:03:00,55.9,54.0,29.82,SSW,205,1.0,4.0,94,0.03,,,0.29,0,weatherlink.com 1.10,2013-04-24 05:03:00,
2013-04-24 01:18:00,55.6,54.0,29.82,SSW,211,1.0,6.0,94,0.03,,,0.30,0,weatherlink.com 1.10,2013-04-24 05:18:00,
2013-04-24 01:33:00,54.9,53.0,29.82,WSW,241,2.0,9.0,94,0.03,,,0.31,0,weatherlink.com 1.10,2013-04-24 05:33:00,
2013-04-24 01:48:00,53.5,52.0,29.83,SW,223,1.0,8.0,93,0.04,,,0.32,0,weatherlink.com 1.10,2013-04-24 05:48:00,
2013-04-24 02:03:00,52.3,50.0,29.82,West,260,1.0,5.0,93,0.03,,,0.32,0,weatherlink.com 1.10,2013-04-24 06:03:00,
2013-04-24 02:18:00,51.5,50.0,29.82,SSW,207,2.0,9.0,94,0.03,,,0.33,0,weatherlink.com 1.10,2013-04-24 06:18:00,
2013-04-24 02:33:00,50.8,49.0,29.82,WNW,284,4.0,7.0,94,0.03,,,0.34,0,weatherlink.com 1.10,2013-04-24 06:33:00,
2013-04-24 02:48:00,49.4,48.0,29.84,WNW,288,1.0,11.0,93,0.02,,,0.34,0,weatherlink.com 1.10,2013-04-24 06:48:00,
2013-04-24 03:03:00,48.7,47.0,29.85,WNW,284,1.0,8.0,93,0.03,,,0.35,0,weatherlink.com 1.10,2013-04-24 07:03:00,
2013-04-24 03:18:00,47.8,46.0,29.86,NW,309,4.0,11.0,93,0.03,,,0.36,0,weatherlink.com 1.10,2013-04-24 07:18:00,
2013-04-24 03:33:00,46.1,44.0,29.86,West,261,2.0,8.0,93,0.02,,,0.36,0,weatherlink.com 1.10,2013-04-24 07:33:00,
2013-04-24 03:48:00,44.2,42.0,29.85,NW,314,2.0,9.0,93,0.02,,,0.36,0,weatherlink.com 1.10,2013-04-24 07:48:00,
2013-04-24 04:03:00,43.9,42.0,29.85,NE,40,0.0,4.0,93,0.02,,,0.37,0,weatherlink.com 1.10,2013-04-24 08:03:00,
2013-04-24 04:18:00,43.6,42.0,29.85,NW,313,2.0,6.0,93,0.02,,,0.01,0,weatherlink.com 1.10,2013-04-24 08:18:00,
2013-04-24 04:33:00,42.8,41.0,29.86,NE,40,1.0,8.0,93,0.02,,,0.01,0,weatherlink.com 1.10,2013-04-24 08:33:00,
2013-04-24 04:48:00,42.4,41.0,29.87,WNW,302,5.0,7.0,93,0.01,,,0.01,0,weatherlink.com 1.10,2013-04-24 08:48:00,
2013-04-24 05:03:00,41.9,40.0,29.84,ENE,61,0.0,6.0,93,0.02,,,0.02,0,weatherlink.com 1.10,2013-04-24 09:03:00,
2013-04-24 05:18:00,41.8,40.0,29.89,SE,138,0.0,9.0,94,0.02,,,0.03,0,weatherlink.com 1.10,2013-04-24 09:18:00,
2013-04-24 05:33:00,41.4,40.0,29.89,West,279,0.0,5.0,94,0.02,,,0.03,0,weatherlink.com 1.10,2013-04-24 09:33:00,
2013-04-24 05:48:00,41.1,40.0,29.88,North,355,0.0,4.0,94,0.02,,,0.03,0,weatherlink.com 1.10,2013-04-24 09:48:00,
2013-04-24 06:03:00,40.9,39.0,29.89,West,279,0.0,6.0,94,0.02,,,0.04,0,weatherlink.com 1.10,2013-04-24 10:03:00,
2013-04-24 06:18:00,40.7,39.0,29.90,NW,304,0.0,7.0,94,0.01,,,0.04,0,weatherlink.com 1.10,2013-04-24 10:18:00,
2013-04-24 06:33:00,40.6,39.0,29.89,NNE,24,0.0,4.0,94,0.02,,,0.05,0,weatherlink.com 1.10,2013-04-24 10:33:00,
2013-04-24 06:48:00,40.3,39.0,29.89,North,360,0.0,7.0,94,0.02,,,0.05,0,weatherlink.com 1.10,2013-04-24 10:48:00,
2013-04-24 07:03:00,40.0,39.0,29.91,WNW,296,0.0,8.0,94,0.01,,,0.05,0,weatherlink.com 1.10,2013-04-24 11:03:00,
2013-04-24 07:19:00,39.4,38.0,29.92,NE,51,4.0,12.0,94,0.02,,,0.06,0,weatherlink.com 1.10,2013-04-24 11:19:00,
2013-04-24 07:34:00,39.1,38.0,29.89,West,266,1.0,4.0,94,0.01,,,0.06,9,weatherlink.com 1.10,2013-04-24 11:34:00,
2013-04-24 07:49:00,39.0,38.0,29.91,SW,217,3.0,3.0,94,0.01,,,0.06,9,weatherlink.com 1.10,2013-04-24 11:49:00,
2013-04-24 08:04:00,38.7,37.0,29.91,NW,323,1.0,9.0,94,0.02,,,0.07,14,weatherlink.com 1.10,2013-04-24 12:04:00,
2013-04-24 08:19:00,38.6,37.0,29.92,North,355,0.0,2.0,94,0.01,,,0.07,14,weatherlink.com 1.10,2013-04-24 12:19:00,
2013-04-24 08:34:00,38.5,37.0,29.90,ENE,74,2.0,7.0,94,0.01,,,0.07,40,weatherlink.com 1.10,2013-04-24 12:34:00,
2013-04-24 08:49:00,38.5,37.0,29.93,WNW,290,0.0,4.0,94,0.02,,,0.08,18,weatherlink.com 1.10,2013-04-24 12:49:00,
2013-04-24 09:04:00,38.3,37.0,29.94,NW,326,1.0,7.0,94,0.01,,,0.08,26,weatherlink.com 1.10,2013-04-24 13:04:00,
2013-04-24 09:19:00,38.1,37.0,29.94,West,274,2.0,7.0,94,0.01,,,0.08,37,weatherlink.com 1.10,2013-04-24 13:19:00,
2013-04-24 09:34:00,38.2,37.0,29.94,NNW,345,1.0,9.0,94,0.02,,,0.09,32,weatherlink.com 1.10,2013-04-24 13:34:00,
2013-04-24 09:49:00,38.3,37.0,29.94,ENE,63,0.0,4.0,94,0.01,,,0.09,26,weatherlink.com 1.10,2013-04-24 13:49:00,
2013-04-24 10:04:00,38.2,36.0,29.95,NW,311,1.0,9.0,93,0.01,,,0.09,56,weatherlink.com 1.10,2013-04-24 14:04:00,
2013-04-24 10:19:00,37.9,36.0,29.96,WNW,302,1.0,7.0,93,0.01,,,0.09,86,weatherlink.com 1.10,2013-04-24 14:19:00,
2013-04-24 10:34:00,37.7,36.0,29.98,West,267,2.0,11.0,93,0.01,,,0.10,88,weatherlink.com 1.10,2013-04-24 14:34:00,
2013-04-24 10:49:00,38.1,36.0,29.99,NW,319,1.0,9.0,93,0.01,,,0.10,67,weatherlink.com 1.10,2013-04-24 14:49:00,
2013-04-24 11:04:00,38.2,36.0,30.00,WNW,293,4.0,14.0,93,0.01,,,0.10,95,weatherlink.com 1.10,2013-04-24 15:04:00,
2013-04-24 11:19:00,38.7,37.0,30.01,NW,324,4.0,9.0,93,0.02,,,0.11,120,weatherlink.com 1.10,2013-04-24 15:19:00,
2013-04-24 11:34:00,39.1,37.0,30.02,WNW,290,5.0,7.0,92,0.01,,,0.11,149,weatherlink.com 1.10,2013-04-24 15:34:00,
2013-04-24 11:49:00,39.9,38.0,30.01,WSW,250,7.0,8.0,92,0.01,,,0.11,415,weatherlink.com 1.10,2013-04-24 15:49:00,
2013-04-24 12:04:00,40.5,38.0,30.03,NW,304,3.0,11.0,90,0.01,,,0.11,285,weatherlink.com 1.10,2013-04-24 16:04:00,
2013-04-24 12:19:00,41.2,38.0,30.04,NNW,327,2.0,9.0,89,0.00,,,0.11,271,weatherlink.com 1.10,2013-04-24 16:19:00,
2013-04-24 12:34:00,41.3,37.0,30.05,NW,317,1.0,9.0,86,0.01,,,0.12,183,weatherlink.com 1.10,2013-04-24 16:34:00,
2013-04-24 12:49:00,41.3,37.0,30.06,WNW,296,2.0,8.0,85,0.01,,,0.12,197,weatherlink.com 1.10,2013-04-24 16:49:00,
2013-04-24 13:04:00,41.1,37.0,30.07,WNW,303,4.0,15.0,84,0.01,,,0.12,345,weatherlink.com 1.10,2013-04-24 17:04:00,
2013-04-24 13:19:00,41.0,37.0,30.09,WSW,246,3.0,14.0,84,0.02,,,0.13,227,weatherlink.com 1.10,2013-04-24 17:19:00,
2013-04-24 13:35:00,40.7,37.0,30.09,West,261,1.0,9.0,85,0.01,,,0.13,144,weatherlink.com 1.10,2013-04-24 17:35:00,
2013-04-24 13:50:00,40.3,37.0,30.10,West,261,2.0,10.0,86,0.01,,,0.13,197,weatherlink.com 1.10,2013-04-24 17:50:00,
2013-04-24 14:05:00,40.2,36.0,30.10,WSW,246,4.0,11.0,86,0.01,,,0.13,86,weatherlink.com 1.10,2013-04-24 18:05:00,
2013-04-24 14:20:00,39.7,36.0,30.11,SW,217,6.0,12.0,87,0.01,,,0.14,109,weatherlink.com 1.10,2013-04-24 18:20:00,
2013-04-24 14:35:00,39.7,37.0,30.11,WNW,293,5.0,9.0,88,0.01,,,0.14,125,weatherlink.com 1.10,2013-04-24 18:35:00,
2013-04-24 14:50:00,40.5,38.0,30.11,WNW,282,3.0,9.0,89,0.01,,,0.14,246,weatherlink.com 1.10,2013-04-24 18:50:00,
2013-04-24 15:05:00,41.6,38.0,30.13,NW,317,7.0,9.0,87,0.01,,,0.15,684,weatherlink.com 1.10,2013-04-24 19:05:00,
2013-04-24 15:20:00,42.1,37.0,30.13,SW,234,3.0,15.0,83,0.01,,,0.15,178,weatherlink.com 1.10,2013-04-24 19:20:00,
2013-04-24 15:35:00,41.4,39.0,30.14,WSW,244,3.0,12.0,90,0.01,,,0.15,545,weatherlink.com 1.10,2013-04-24 19:35:00,
2013-04-24 15:50:00,42.1,38.0,30.14,WSW,256,5.0,12.0,86,0.01,,,0.16,626,weatherlink.com 1.10,2013-04-24 19:50:00,
2013-04-24 16:05:00,43.6,38.0,30.14,West,273,6.0,10.0,81,0.01,,,0.16,355,weatherlink.com 1.10,2013-04-24 20:05:00,
2013-04-24 16:20:00,44.2,37.0,30.14,West,265,6.0,11.0,76,0.01,,,0.16,1062,weatherlink.com 1.10,2013-04-24 20:20:00,
2013-04-24 16:35:00,45.0,36.0,30.13,West,273,0.0,12.0,71,0.02,,,0.17,258,weatherlink.com 1.10,2013-04-24 20:35:00,
2013-04-24 16:50:00,46.8,37.0,30.14,SW,233,7.0,13.0,70,0.01,,,0.17,940,weatherlink.com 1.10,2013-04-24 20:50:00,
2013-04-24 17:05:00,46.2,36.0,30.15,NW,308,5.0,13.0,67,0.01,,,0.17,283,weatherlink.com 1.10,2013-04-24 21:05:00,
2013-04-24 17:20:00,46.0,36.0,30.16,South,185,4.0,10.0,67,0.01,,,0.17,114,weatherlink.com 1.10,2013-04-24 21:20:00,
2013-04-24 17:35:00,45.3,36.0,30.16,West,269,4.0,10.0,69,0.01,,,0.18,134,weatherlink.com 1.10,2013-04-24 21:35:00,
2013-04-24 17:50:00,45.5,34.0,30.17,West,271,2.0,8.0,65,0.01,,,0.18,183,weatherlink.com 1.10,2013-04-24 21:50:00,
2013-04-24 18:05:00,45.2,34.0,30.18,WSW,254,2.0,12.0,64,0.01,,,0.18,104,weatherlink.com 1.10,2013-04-24 22:05:00,
2013-04-24 18:20:00,45.3,34.0,30.17,WNW,291,2.0,9.0,64,0.02,,,0.19,190,weatherlink.com 1.10,2013-04-24 22:20:00,
2013-04-24 18:35:00,46.5,34.0,30.18,SW,219,2.0,12.0,61,0.01,,,0.19,128,weatherlink.com 1.10,2013-04-24 22:35:00,
2013-04-24 18:50:00,45.9,33.0,30.18,SW,228,3.0,11.0,61,0.01,,,0.19,241,weatherlink.com 1.10,2013-04-24 22:50:00,
2013-04-24 19:05:00,46.3,34.0,30.18,SW,231,7.0,10.0,63,0.01,,,0.19,121,weatherlink.com 1.10,2013-04-24 23:05:00,
2013-04-24 19:20:00,46.3,32.0,30.18,SW,225,4.0,13.0,59,0.00,,,0.19,192,weatherlink.com 1.10,2013-04-24 23:20:00,
2013-04-24 19:35:00,46.0,33.0,30.19,SW,232,2.0,10.0,61,0.01,,,0.20,69,weatherlink.com 1.10,2013-04-24 23:35:00,
2013-04-24 19:50:00,44.7,32.0,30.19,WSW,246,3.0,10.0,62,0.01,,,0.20,33,weatherlink.com 1.10,2013-04-24 23:50:00,
2013-04-24 20:05:00,43.8,33.0,30.20,WSW,245,0.0,6.0,66,0.01,,,0.20,23,weatherlink.com 1.10,2013-04-25 00:05:00,
2013-04-24 20:20:00,42.9,33.0,30.20,WSW,245,1.0,1.0,68,0.01,,,0.20,14,weatherlink.com 1.10,2013-04-25 00:20:00,
2013-04-24 20:35:00,42.3,33.0,30.21,WSW,245,0.0,1.0,70,0.01,,,0.21,0,weatherlink.com 1.10,2013-04-25 00:35:00,
2013-04-24 20:50:00,41.3,33.0,30.21,WSW,245,0.0,2.0,72,0.01,,,0.21,0,weatherlink.com 1.10,2013-04-25 00:50:00,
2013-04-24 21:05:00,40.6,33.0,30.22,WSW,245,0.0,2.0,73,0.01,,,0.21,0,weatherlink.com 1.10,2013-04-25 01:05:00,
2013-04-24 21:20:00,40.0,33.0,30.23,WSW,245,0.0,0.0,75,0.01,,,0.21,0,weatherlink.com 1.10,2013-04-25 01:20:00,
2013-04-24 21:35:00,39.4,32.0,30.23,WSW,245,0.0,0.0,76,0.00,,,0.21,0,weatherlink.com 1.10,2013-04-25 01:35:00,
2013-04-24 21:50:00,38.8,32.0,30.24,WSW,245,0.0,1.0,77,0.00,,,0.21,0,weatherlink.com 1.10,2013-04-25 01:50:00,
2013-04-24 22:05:00,38.4,32.0,30.24,WSW,245,0.0,0.0,78,0.00,,,0.21,0,weatherlink.com 1.10,2013-04-25 02:05:00,
2013-04-24 22:20:00,38.2,32.0,30.25,WSW,245,0.0,2.0,79,0.01,,,0.22,0,weatherlink.com 1.10,2013-04-25 02:20:00,
2013-04-24 22:35:00,38.0,32.0,30.25,WSW,245,0.0,2.0,80,0.01,,,0.22,0,weatherlink.com 1.10,2013-04-25 02:35:00,
2013-04-24 22:50:00,37.5,32.0,30.25,WSW,245,0.0,1.0,80,0.01,,,0.22,0,weatherlink.com 1.10,2013-04-25 02:50:00,
2013-04-24 23:21:00,37.4,32.0,30.26,WSW,245,0.0,3.0,81,0.00,,,0.22,0,weatherlink.com 1.10,2013-04-25 03:21:00,
2013-04-24 23:36:00,37.9,32.0,30.26,WSW,245,0.0,4.0,80,0.00,,,0.22,0,weatherlink.com 1.10,2013-04-25 03:36:00,
2013-04-24 23:51:00,37.9,32.0,30.26,SW,220,1.0,4.0,80,0.00,,,0.22,0,weatherlink.com 1.10,2013-04-25 03:51:00,